Location: Caltech
(34.1382°N, 118.1253°W)
Time: 23:45:21
(UTC-07:00)

SL-08 R/B - Visible Passes

Search period start: 18 June 2018 00:00
Search period end: 28 June 2018 00:00
Orbit: 673 x 740 km, 98.3° (Epoch: 18 June)

Date Brightness Start Highest point End Pass type
(mag) Time Alt. Az. Time Alt. Az. Time Alt. Az.
18 Jun 5.8 01:49:19 13° E 01:51:02 15° ENE 01:53:39 10° NNE visible
18 Jun 3.5 03:28:18 48° WSW 03:28:26 49° W 03:33:01 10° NNW visible
19 Jun 4.3 02:34:03 38° E 02:34:53 42° ENE 02:39:20 10° N visible
19 Jun 5.0 04:13:02 16° W 04:13:02 16° W 04:15:44 10° NW visible
20 Jun 6.0 01:40:07 10° E 01:41:43 12° ENE 01:43:20 10° NE visible
20 Jun 3.2 03:18:47 62° WSW 03:18:59 63° WSW 03:23:40 10° NNW visible
21 Jun 4.7 02:24:33 30° E 02:25:31 33° ENE 02:29:43 10° N visible
21 Jun 4.7 04:03:32 20° W 04:03:32 20° W 04:06:49 10° NW visible
22 Jun 3.1 03:09:18 76° SSW 03:09:34 80° WSW 03:14:17 10° NNW visible
23 Jun 5.0 02:15:03 24° E 02:16:09 26° ENE 02:20:03 10° NNE visible
23 Jun 4.4 03:54:02 25° W 03:54:02 25° W 03:57:46 10° NW visible
24 Jun 3.2 02:59:48 74° SE 03:00:09 80° ENE 03:04:51 10° N visible
25 Jun 5.3 02:05:34 19° E 02:06:48 21° ENE 02:10:17 10° NNE visible
25 Jun 4.1 03:44:33 32° W 03:44:33 32° W 03:48:35 10° NW visible
26 Jun 3.5 02:50:19 59° ESE 02:50:45 63° ENE 02:55:22 10° N visible
26 Jun 5.4 04:29:18 10° W 04:29:18 10° W 04:29:18 10° W visible
27 Jun 5.6 01:56:05 15° E 01:57:28 17° ENE 02:00:24 10° NNE visible
27 Jun 3.8 03:35:04 41° W 03:35:04 41° W 03:39:20 10° NNW visible
